Погода в Шабаново

Россия / Тюменская область     56°29′15″N   67°53′09″E
темп.,
°C
ветер,
м/с
пор.,
м/с
влажн.,
%
обл.,
%
осадки,
мм/ч
давл.,
гПа
погр.,
м
9 мая, вс
вс923:00+15юв2241100 0.0 101622
02:00+14вюв1145100 0.0 101611
05:00+13всв3448100 0.0 101655
08:00+17в4842100 0.0 1016346
11:00+21в6837100 0.0 10171013
14:00+23в7931100 0.0 10172756
17:00+21всв793397 0.0 10171967
20:00+17всв61142100 0.0 1019700
10 мая, пн
пн1023:00+14всв6124399 0.0 1020668
02:00+12всв51247100 0.0 1021622
05:00+10всв5115299 0.0 1022453
08:00+12всв61044100 0.0 1024860
11:00+15всв793484 0.0 10241379
14:00+18всв682879 0.0 10241789
17:00+18всв57286 0.0 10241819
20:00+14всв33420 0.0 102550
11 мая, вт
вт1123:00+11всв22460 0.0 102621
02:00+9св12530 0.0 102710
05:00+8ссв22590 0.0 102810
08:00+15ссв23430 0.0 1028445
11:00+19ссв33320 0.0 10281508
14:00+21ссв332568 0.0 10271826
17:00+22с2323100 0.0 10271860
20:00+17зюз1135100 0.0 102713
12 мая, ср
ср1223:00+14зсз2238100 0.0 102716
02:00+12зсз344598 0.0 102659
05:00+11з3849100 0.0 1026136
08:00+14сз3854100 0.0 1026406
11:00+19ссз6735100 0.0 10261441
14:00+19с6731100 0.0 10261844
17:00+14с5843100 0.0 1027547
20:00+12с3757100 0.0 1027439
13 мая, чт
чт1323:00+9ссз37698 0.0 1027198
02:00+7с228116 0.0 102837
05:00+7сз22825 0.0 102826
08:00+13зсз355799 0.0 1027532
11:00+18сз364839 0.0 10261255
14:00+21сз574492 0.0 10241596
17:00+20сз4952100 0.0 1023624
20:00+18ссз49581 0.0 1024291